Location: Peyton Hall Observatory
(40.3466°N, 74.6516°W)
Time: 07:45:45
(UTC-04:00)

ISS - All Passes

Search period start: 22 August 2014 00:00
Search period end: 01 September 2014 00:00
Orbit: 413 x 419 km, 51.6° (Epoch: 22 August)

Date Brightness Start Highest point End Pass type
(mag) Time Alt. Az. Time Alt. Az. Time Alt. Az.
22 Aug - 13:51:40 10° SSW 13:54:53 48° SE 13:58:06 10° ENE daylight
22 Aug - 15:28:57 10° W 15:31:45 25° NNW 15:34:35 10° NNE daylight
22 Aug - 17:07:58 10° NNW 17:09:24 12° N 17:10:49 10° NNE daylight
22 Aug - 18:44:58 10° NNW 18:47:12 16° NNE 18:49:25 10° ENE daylight
22 Aug - 20:21:07 10° NW 20:24:26 66° NE 20:27:45 10° ESE visible
22 Aug - 21:59:03 10° W 22:00:47 14° SW 22:02:31 10° SSW visible
23 Aug - 13:03:36 10° SSW 13:06:26 27° SE 13:09:17 10° ENE daylight
23 Aug - 14:39:59 10° W 14:43:05 36° NNW 14:46:11 10° NE daylight
23 Aug - 16:18:50 10° NW 16:20:33 13° N 16:22:17 10° NNE daylight
23 Aug - 17:56:34 10° NNW 17:58:23 14° N 18:00:12 10° NE daylight
23 Aug - 19:32:39 10° NW 19:35:49 39° NNE 19:38:59 10° ESE daylight
23 Aug - 21:09:41 10° WNW 21:12:25 24° SW 21:15:08 10° S visible
24 Aug - 12:16:01 10° SSE 12:18:02 15° SE 12:20:04 10° E daylight
24 Aug - 13:51:10 10° WSW 13:54:26 57° NW 13:57:44 10° NE daylight
24 Aug - 15:29:37 10° NW 15:31:43 16° NNW 15:33:50 10° NNE daylight
24 Aug - 17:08:03 10° NNW 17:09:32 12° N 17:11:01 10° NNE daylight
24 Aug - 18:44:14 10° NW 18:47:08 27° NNE 18:50:02 10° E daylight
24 Aug - 20:20:47 10° WNW 20:23:57 42° SW 20:27:07 10° SSE visible
25 Aug - 13:02:32 10° SW 13:05:50 81° SE 13:09:10 10° NE daylight
25 Aug - 14:40:24 10° WNW 14:42:54 20° NNW 14:45:25 10° NNE daylight
25 Aug - 16:19:18 10° NNW 16:20:39 12° N 16:21:59 10° NNE daylight
25 Aug - 17:55:49 10° NNW 17:58:22 20° NNE 18:00:55 10° ENE daylight
25 Aug - 19:32:05 10° NW 19:35:25 78° SW 19:38:44 10° SE daylight
26 Aug - 12:14:07 10° SSW 12:17:17 43° SE 12:20:28 10° ENE daylight
26 Aug - 13:51:15 10° W 13:54:07 26° NNW 13:57:00 10° NE daylight
26 Aug - 15:30:16 10° NNW 15:31:44 12° N 15:33:11 10° NNE daylight
26 Aug - 17:07:23 10° NNW 17:09:32 16° NNE 17:11:41 10° NE daylight
26 Aug - 18:43:30 10° NW 18:46:48 60° NE 18:50:05 10° ESE daylight
26 Aug - 20:21:14 10° W 20:23:11 15° SW 20:25:08 10° SSW visible
27 Aug - 11:26:01 10° S 11:28:46 24° SE 11:31:32 10° ENE daylight
27 Aug - 13:02:14 10° W 13:05:22 38° NNW 13:08:31 10° NE daylight
27 Aug - 14:41:02 10° NW 14:42:49 14° N 14:44:36 10° NNE daylight
27 Aug - 16:18:53 10° NNW 16:20:38 13° N 16:22:23 10° NE daylight
27 Aug - 17:54:58 10° NW 17:58:06 37° NNE 18:01:13 10° E daylight
27 Aug - 19:31:54 10° WNW 19:34:43 26° SW 19:37:32 10° SSE daylight
28 Aug - 10:38:30 10° SSE 10:40:18 14° SE 10:42:06 10° E daylight
28 Aug - 12:13:22 10° WSW 12:16:39 63° NW 12:19:58 10° NE daylight
28 Aug - 13:51:43 10° WNW 13:53:54 16° NNW 13:56:05 10° NNE daylight
28 Aug - 15:30:15 10° NNW 15:31:42 12° N 15:33:08 10° NNE daylight
28 Aug - 17:06:28 10° NW 17:09:19 25° NNE 17:12:09 10° E daylight
28 Aug - 18:42:58 10° WNW 18:46:10 46° SW 18:49:22 10° SSE daylight
29 Aug - 11:24:41 10° SW 11:27:59 73° SE 11:31:18 10° ENE daylight
29 Aug - 13:02:26 10° WNW 13:05:00 20° NNW 13:07:35 10° NNE daylight
29 Aug - 14:41:23 10° NNW 14:42:43 12° N 14:44:03 10° NNE daylight
29 Aug - 16:17:59 10° NNW 16:20:27 19° NNE 16:22:56 10° ENE daylight
29 Aug - 17:54:12 10° NW 17:57:32 86° SW 18:00:52 10° SE daylight
30 Aug - 10:36:14 10° SSW 10:39:21 39° SE 10:42:29 10° ENE daylight
30 Aug - 12:13:14 10° W 12:16:09 28° NNW 12:19:04 10° NE daylight
30 Aug - 13:52:13 10° NNW 13:53:43 12° N 13:55:14 10° NNE daylight
30 Aug - 15:29:27 10° NNW 15:31:32 15° NNE 15:33:36 10° NE daylight
30 Aug - 17:05:33 10° NW 17:08:50 54° NNE 17:12:06 10° ESE daylight
30 Aug - 18:43:05 10° W 18:45:15 16° SW 18:47:24 10° S daylight
31 Aug - 09:48:08 10° S 09:50:46 22° SE 09:53:25 10° E daylight
31 Aug - 11:24:09 10° WSW 11:27:19 41° NNW 11:30:30 10° NE daylight
31 Aug - 13:02:53 10° NW 13:04:44 14° NNW 13:06:35 10° NNE daylight
31 Aug - 14:40:52 10° NNW 14:42:33 13° N 14:44:14 10° NE daylight
31 Aug - 16:16:57 10° NW 16:20:02 34° NNE 16:23:06 10° E daylight
31 Aug - 17:53:46 10° WNW 17:56:41 28° SW 17:59:36 10° SSE daylight
